BREEZE-M R/B, 33598

Orbit data source: Space-Track

BREEZE-M R/B, 33598 is space debris in GEO originally from a launch on Wed, 11 Feb 2009 UTC launched from the Tyuratam Missile And Space Complex (TTMTR). Debris objects in space refer to the collection of defunct objects orbiting the Earth. Examples of debris include non-operational satellites, rocket bodies, and fragments generated from explosions, collisions, or faulty payload assembly.

Not visible in the next 10 days
Identifier
33598, 2009-007D
Orbit
GEO
Country
Flag of CISCIS
Related business
Manufacturer
Khrunichev
Mission
Spacecraft
Bus & Motor
BRIZ, Unknown motor
Mass
~1,600 kg wet, 1,600 kg dry
Launch date (UTC)
2009-02-11 (17 years ago)
Launch vehicle
Unknown
Launch site
Tyuratam Missile And Space Complex (TTMTR)
Object type
Payload
Rocket body
Debris
Shape & HBR
Cyl, 2.0 m
Radar Cross Section
15.135 m², Large (>1 m²)

Expand to show TLE details & history
Last TLE update: 11 hours ago

TLE from 11 hours ago
0 BREEZE-M R/B
1 33598U 09007D   26194.71203669 -.00000101  00000-0  00000+0 0  9992
2 33598  12.4837  36.2327 0202473  61.9639 131.1531  0.97631292 62530
Epoch: 2026-07-13T17:05Z
TLE epoch observation values (Epoch: 2026-07-13T17:05:19.970Z)
Latitude
-3.1766°
Longitude
42.83396°
Altitude
37,127.076 km
Speed
3.006 km/s
True Right ascension
15h 23m 02s
True Declination
-3° 10' 25"
Sunlit
Object was in daylight at epoch
Visualization orbit readout
Latitude
Unknown
Longitude
Unknown
Altitude
Unknown
Speed
Unknown
Apparent Right ascension
Unknown
Apparent Declination
Unknown
Sunlit
N/A
Visualization observer readout
Local Sidereal Time
16:31:48
Azimuth
Unknown
Elevation
Unknown
Doppler factor
Unknown
Orbital elements
Apogee altitude
37,413.502 km
Perigee altitude
35,675.369 km
Semi-major axis
42,922.573 km
Eccentricity
0.02025
Inclination
12.4837°
RAAN
36.2327°
Arg. of periapsis
61.9639°
True anomaly
132.87119°
Mean anomaly
131.1531°
Eccentric anomaly
132.01501°
Mean motion
0.24407 °/min
Orbital period
1,474.99 mins
BSTAR
0
Loading maneuver chart data...
Computing Atmospheric mass density...
Loading historical data...
Loading historical data...
Loading historical data...
Loading historical data...
Loading historical data...
Loading historical data...
Loading historical data...
Other satellites on launch #7 in the year 2009 (2009-02-11 UTC)

Documentation

Showing up to 5 results
|